DW1653 Weather Reports


Display with metric or nautical units.
time (UTC)temp
F
wind
direction
speed
MPH
gust
MPH
rain 1hr
in
rain 24hr
in
rain mn
in
humidity
%
barometer
mb
20260503032336 51 342 3.0 7.0 0.00 0.00 0.00 69 1011.0
20260503031826 51 322 3.0 6.0 0.00 0.00 0.00 71 1011.1
20260503031318 51 329 2.0 5.0 0.00 0.00 0.00 73 1011.0
20260503030830 52 313 1.0 3.0 0.00 0.00 0.00 74 1011.0
20260503030320 52 5 1.0 3.0 0.00 0.00 0.00 75 1011.0
20260503025815 52 332 0.0 5.0 0.00 0.00 0.00 75 1011.0
20260503024825 52 335 0.0 3.0 0.00 0.00 0.00 77 1010.9
20260503024315 52 339 2.0 5.0 0.00 0.00 0.00 78 1010.8
20260503023827 52 319 2.0 5.0 0.00 0.00 0.00 79 1010.8
20260503023319 52 333 1.0 4.0 0.00 0.00 0.00 79 1010.9
20260503022831 52 288 1.0 4.0 0.00 0.00 0.00 79 1011.0
20260503022342 52 286 1.0 3.0 0.00 0.00 0.00 79 1011.1
20260503021852 52 286 2.0 4.0 0.00 0.00 0.00 79 1011.2
20260503021323 52 253 3.0 5.0 0.00 0.00 0.00 78 1011.1
20260503020834 52 287 2.0 4.0 0.00 0.00 0.00 78 1011.0
20260503020330 52 283 3.0 4.0 0.00 0.00 0.00 78 1011.1
20260503015822 52 261 1.0 4.0 0.00 0.00 0.00 78 1010.9
20260503015334 52 252 2.0 5.0 0.00 0.00 0.00 78 1011.1
20260503014824 52 234 1.0 3.0 0.00 0.00 0.00 78 1011.1
20260503014316 52 265 2.0 4.0 0.00 0.00 0.00 77 1011.2
20260503013828 52 267 2.0 4.0 0.00 0.00 0.00 77 1011.2
20260503013322 52 277 2.0 5.0 0.00 0.00 0.00 77 1011.1
20260503012833 52 275 2.0 5.0 0.00 0.00 0.00 77 1011.1
20260503012328 53 239 2.0 4.0 0.00 0.00 0.00 76 1011.2
20260503011820 53 238 2.0 4.0 0.00 0.00 0.00 76 1011.1
20260503011331 53 246 2.0 4.0 0.00 0.00 0.00 76 1011.2
20260503010843 53 202 1.0 3.0 0.00 0.00 0.00 76 1011.1
20260503010314 53 228 1.0 3.0 0.00 0.00 0.00 75 1010.9
20260503005829 53 203 0.0 3.0 0.00 0.00 0.00 75 1010.9
20260503005341 53 188 1.0 3.0 0.00 0.00 0.00 75 1010.9
20260503004812 53 188 1.0 2.0 0.00 0.00 0.00 75 1010.8
20260503004326 54 200 0.0 1.0 0.00 0.00 0.00 74 1010.7
20260503003822 54 200 0.0 2.0 0.00 0.00 0.00 74 1010.7
20260503003314 54 200 0.0 2.0 0.00 0.00 0.00 74 1010.6
20260503002825 54 200 0.0 1.0 0.00 0.00 0.00 74 1010.6
20260503002338 54 200 0.0 2.0 0.00 0.00 0.00 73 1010.6
20260503001828 54 200 0.0 2.0 0.00 0.00 0.00 73 1010.6
20260503001323 54 200 1.0 3.0 0.00 0.00 0.00 73 1010.6
20260503000834 55 202 1.0 3.0 0.00 0.00 0.00 73 1010.7
20260503000326 55 192 1.0 3.0 0.00 0.00 0.00 72 1010.6
20260502235818 55 179 2.0 4.0 0.00 0.00 0.00 72 1010.6
20260502235333 55 185 2.0 4.0 0.00 0.00 0.00 71 1010.7
20260502234845 55 182 2.0 3.0 0.00 0.00 0.00 71 1010.7
20260502234315 55 188 1.0 2.0 0.00 0.00 0.00 70 1010.7
20260502233849 55 183 1.0 5.0 0.00 0.00 0.00 70 1010.8
20260502233319 56 191 2.0 5.0 0.00 0.00 0.00 69 1010.7
20260502232851 56 178 2.0 4.0 0.00 0.00 0.00 69 1010.7
20260502232322 56 190 2.0 4.0 0.00 0.00 0.00 69 1010.7
20260502231833 56 188 1.0 3.0 0.00 0.00 0.00 68 1010.7
20260502231323 56 186 0.0 5.0 0.00 0.00 0.00 67 1010.7
20260502230815 56 194 3.0 5.0 0.00 0.00 0.00 66 1010.7
20260502230331 56 194 2.0 6.0 0.00 0.00 0.00 65 1010.7
20260502225833 56 163 2.0 6.0 0.00 0.00 0.00 65 1010.5
20260502225318 56 166 2.0 5.0 0.00 0.00 0.00 65 1010.6
20260502224849 56 163 1.0 4.0 0.00 0.00 0.00 66 1010.5
20260502224319 56 182 1.0 4.0 0.00 0.00 0.00 67 1010.6
20260502223831 56 192 3.0 5.0 0.00 0.00 0.00 67 1010.5
20260502223322 56 150 2.0 5.0 0.00 0.00 0.00 68 1010.5
20260502222834 56 200 2.0 5.0 0.00 0.00 0.00 68 1010.6
20260502222325 56 159 3.0 6.0 0.00 0.00 0.00 67 1010.6
20260502221819 57 166 3.0 6.0 0.00 0.00 0.00 68 1010.6
20260502221330 57 121 2.0 5.0 0.00 0.00 0.00 67 1010.4
20260502220821 57 166 1.0 4.0 0.00 0.00 0.00 67 1010.4
20260502220333 57 144 2.0 4.0 0.00 0.00 0.00 67 1010.4
20260502215824 57 225 2.0 3.0 0.00 0.00 0.00 67 1010.3
20260502215315 57 157 1.0 4.0 0.00 0.00 0.00 66 1010.5
20260502214827 57 173 2.0 5.0 0.00 0.00 0.00 68 1010.7
20260502214321 57 168 3.0 6.0 0.00 0.00 0.00 68 1010.8
20260502213819 57 157 2.0 6.0 0.00 0.00 0.00 68 1010.6
20260502213331 57 164 3.0 5.0 0.00 0.00 0.00 66 1010.5
20260502212822 57 94 2.0 7.0 0.00 0.00 0.00 69 1010.5
20260502212334 57 166 3.0 7.0 0.00 0.00 0.00 70 1010.6
20260502211846 57 150 4.0 5.0 0.00 0.00 0.00 70 1010.5
20260502211319 57 165 2.0 7.0 0.00 0.00 0.00 70 1010.4
20260502210831 57 138 2.0 7.0 0.00 0.00 0.00 70 1010.3
20260502210322 57 155 3.0 6.0 0.00 0.00 0.00 70 1010.1
20260502205834 57 117 1.0 6.0 0.00 0.00 0.00 70 1010.2
20260502205332 57 107 1.0 6.0 0.00 0.00 0.00 70 1010.2
20260502204825 57 97 4.0 7.0 0.00 0.00 0.00 70 1010.1
20260502204317 57 137 2.0 8.0 0.00 0.00 0.00 72 1010.1
20260502203828 57 121 3.0 7.0 0.00 0.00 0.00 72 1010.2
20260502203339 57 96 3.0 7.0 0.00 0.00 0.00 72 1010.2
20260502202829 57 105 2.0 8.0 0.00 0.00 0.00 71 1010.4
20260502202324 57 159 2.0 8.0 0.00 0.00 0.00 71 1010.4
20260502201819 57 138 1.0 7.0 0.00 0.00 0.00 70 1010.4
20260502201350 58 142 4.0 7.0 0.00 0.00 0.00 70 1010.4
20260502200825 58 104 2.0 7.0 0.00 0.00 0.00 71 1010.4
20260502200316 57 117 2.0 8.0 0.00 0.00 0.00 71 1010.4
20260502195826 57 118 4.0 8.0 0.00 0.00 0.00 72 1010.5
20260502195317 57 153 4.0 8.0 0.00 0.00 0.00 72 1010.7
20260502194828 57 129 4.0 7.0 0.00 0.00 0.00 71 1010.8
20260502194343 57 92 3.0 5.0 0.00 0.00 0.00 70 1010.6
20260502193833 57 103 1.0 5.0 0.00 0.00 0.00 69 1010.7
20260502193325 58 86 1.0 7.0 0.00 0.00 0.00 67 1010.9
20260502192816 58 69 3.0 9.0 0.00 0.00 0.00 67 1010.9
20260502192331 58 41 5.0 9.0 0.00 0.00 0.00 68 1010.9
20260502191823 59 59 3.0 7.0 0.00 0.00 0.00 69 1011.1
20260502191334 58 61 1.0 5.0 0.00 0.00 0.00 68 1011.2
20260502190825 59 113 2.0 6.0 0.00 0.00 0.00 67 1011.3
20260502190317 60 78 2.0 7.0 0.00 0.00 0.00 67 1011.4
20260502185829 60 111 2.0 7.0 0.00 0.00 0.00 66 1011.4
20260502185320 60 89 2.0 7.0 0.00 0.00 0.00 69 1011.3
20260502184851 59 133 1.0 8.0 0.00 0.00 0.00 68 1011.4
20260502184342 60 102 3.0 8.0 0.00 0.00 0.00 68 1011.4
20260502183819 60 107 1.0 5.0 0.00 0.00 0.00 68 1011.4
20260502183333 59 126 2.0 5.0 0.00 0.00 0.00 70 1011.5
20260502182824 58 138 1.0 5.0 0.00 0.00 0.00 73 1011.6
20260502182315 57 106 1.0 5.0 0.00 0.00 0.00 71 1011.6
20260502181846 57 50 2.0 7.0 0.00 0.00 0.00 73 1011.6
20260502181317 57 83 2.0 7.0 0.00 0.00 0.00 73 1011.6
20260502180828 57 108 1.0 4.0 0.00 0.00 0.00 73 1011.6
20260502170325 56 105 1.0 5.0 0.00 0.00 0.00 75 1012.0
20260502164317 56 138 3.0 6.0 0.00 0.00 0.00 74 1012.2
20260502163829 56 133 2.0 5.0 0.00 0.00 0.00 73 1012.3
20260502163320 56 106 2.0 5.0 0.00 0.00 0.00 73 1012.4
20260502162851 56 75 2.0 5.0 0.00 0.00 0.00 73 1012.5
20260502162322 57 149 3.0 6.0 0.00 0.00 0.00 72 1012.6
20260502161818 57 153 2.0 5.0 0.00 0.00 0.00 73 1012.5
20260502161349 57 175 3.0 5.0 0.00 0.00 0.00 72 1012.5
20260502160840 57 144 4.0 6.0 0.00 0.00 0.00 71 1012.4
20260502160331 58 128 3.0 6.0 0.00 0.00 0.00 70 1012.3
20260502151823 58 307 1.0 6.0 0.00 0.00 0.00 65 1012.2
20260502151315 58 334 3.0 6.0 0.00 0.00 0.00 65 1012.3
20260502150826 58 355 2.0 6.0 0.00 0.00 0.00 66 1012.3
20260502150321 58 5 1.0 4.0 0.00 0.00 0.00 65 1012.3
20260502130320 56 311 3.0 7.0 0.00 0.00 0.00 73 1012.5
20260502122829 53 309 2.0 4.0 0.00 0.00 0.00 82 1012.7
20260502122324 53 312 1.0 7.0 0.00 0.00 0.00 83 1012.7
20260502121816 53 296 2.0 7.0 0.00 0.00 0.00 83 1012.8
20260502121327 53 286 3.0 5.0 0.00 0.00 0.00 83 1012.7
20260502120819 52 290 2.0 5.0 0.00 0.00 0.00 84 1012.6
20260502120330 52 289 2.0 8.0 0.00 0.00 0.00 84 1012.5
20260502115822 52 280 3.0 8.0 0.00 0.00 0.00 85 1012.6
20260502115333 52 257 2.0 5.0 0.00 0.00 0.00 85 1012.6
20260502114828 51 288 3.0 5.0 0.00 0.00 0.00 85 1012.6
20260502113851 51 311 3.0 5.0 0.00 0.00 0.00 86 1012.6
20260502113321 50 271 2.0 5.0 0.00 0.00 0.00 85 1012.6
20260502112833 50 246 2.0 5.0 0.00 0.00 0.00 86 1012.7
20260502112325 50 263 3.0 6.0 0.00 0.00 0.00 86 1012.7
20260502111816 50 296 3.0 5.0 0.00 0.00 0.00 86 1012.7
20260502111347 50 261 2.0 5.0 0.00 0.00 0.00 86 1012.6
20260502110818 50 277 3.0 5.0 0.00 0.00 0.00 86 1012.6
20260502110329 50 259 2.0 3.0 0.00 0.00 0.00 85 1012.4
20260502105845 50 262 1.0 3.0 0.00 0.00 0.00 85 1012.4
20260502105316 50 279 2.0 3.0 0.00 0.00 0.00 85 1012.3
20260502104847 50 277 2.0 3.0 0.00 0.00 0.00 85 1012.3
20260502103840 49 216 1.0 2.0 0.00 0.00 0.00 85 1012.1
20260502103331 49 216 0.0 2.0 0.00 0.00 0.00 85 1012.0
20260502102822 49 205 1.0 2.0 0.00 0.00 0.00 85 1012.0
20260502102314 49 204 1.0 2.0 0.00 0.00 0.00 85 1011.9
20260502101846 49 259 0.0 2.0 0.00 0.00 0.00 85 1011.9
20260502101336 49 259 0.0 3.0 0.00 0.00 0.00 85 1012.0
20260502100827 49 259 1.0 3.0 0.00 0.00 0.00 84 1012.1
20260502100319 49 261 1.0 4.0 0.00 0.00 0.00 84 1012.1
20260502091323 49 233 1.0 3.0 0.00 0.00 0.00 83 1012.3
20260502090819 50 232 1.0 3.0 0.00 0.00 0.00 83 1012.2
20260502090330 50 199 1.0 2.0 0.00 0.00 0.00 83 1012.0
20260502071355 51 260 3.0 6.0 0.00 0.00 0.00 80 1012.1
20260502070826 51 263 3.0 6.0 0.00 0.00 0.00 80 1012.1
20260502070320 51 241 2.0 4.0 0.00 0.00 0.00 80 1012.3
20260502065832 51 225 1.0 4.0 0.00 0.00 0.00 80 1012.2
20260502065324 51 205 2.0 4.0 0.00 0.00 0.00 80 1012.2
20260502064819 51 171 2.0 3.0 0.00 0.00 0.00 80 1012.3
20260502064331 51 229 2.0 3.0 0.00 0.00 0.00 80 1012.2
20260502063822 51 246 1.0 4.0 0.00 0.00 0.00 80 1012.2
20260502063317 51 239 2.0 5.0 0.00 0.00 0.00 80 1012.4
20260502062832 51 281 2.0 5.0 0.00 0.00 0.00 80 1012.4
20260502062324 51 190 2.0 6.0 0.00 0.00 0.00 80 1012.3
20260502061814 51 232 2.0 6.0 0.00 0.00 0.00 80 1012.5
20260502061326 51 248 2.0 5.0 0.00 0.00 0.00 80 1012.7
20260502060822 51 217 1.0 8.0 0.00 0.00 0.00 80 1012.7
20260502060354 51 188 2.0 8.0 0.00 0.00 0.00 80 1012.5
20260502055824 51 211 2.0 4.0 0.00 0.00 0.00 80 1012.5
20260502055337 51 241 2.0 5.0 0.00 0.00 0.00 80 1012.7
20260502054830 51 208 3.0 6.0 0.00 0.00 0.00 80 1012.7
20260502054321 51 165 2.0 6.0 0.00 0.00 0.00 80 1012.8
20260502053836 51 217 2.0 6.0 0.00 0.00 0.00 80 1012.9
20260502053326 51 235 2.0 6.0 0.00 0.00 0.00 80 1012.7
20260502052818 51 188 1.0 10.0 0.00 0.00 0.00 80 1012.7
20260502052329 51 215 3.0 11.0 0.00 0.00 0.00 80 1012.8
20260502051825 51 239 4.0 11.0 0.00 0.00 0.00 80 1012.8
20260502051317 52 220 4.0 8.0 0.00 0.00 0.00 80 1012.7
20260502050813 52 209 3.0 7.0 0.00 0.00 0.00 80 1012.5
20260502050326 52 180 3.0 9.0 0.00 0.00 0.00 80 1012.5
20260502045839 52 190 3.0 11.0 0.00 0.00 0.00 80 1012.6
20260502045328 51 273 4.0 11.0 0.00 0.00 0.00 79 1012.8
20260502044820 51 222 4.0 6.0 0.00 0.00 0.00 79 1012.8
20260502044331 51 220 3.0 6.0 0.00 0.00 0.00 79 1012.8
20260502043843 51 211 3.0 7.0 0.00 0.00 0.00 79 1012.8
20260502043354 51 203 4.0 7.0 0.00 0.00 0.00 78 1012.6
20260502042828 51 182 3.0 10.0 0.00 0.00 0.00 78 1012.4
20260502042319 51 170 3.0 8.0 0.00 0.00 0.00 77 1012.4
20260502041831 51 181 4.0 8.0 0.00 0.00 0.00 77 1012.5
20260502041322 51 207 3.0 8.0 0.00 0.00 0.00 76 1012.7
20260502040834 51 259 3.0 6.0 0.00 0.00 0.00 76 1012.7
20260502040345 51 208 3.0 7.0 0.00 0.00 0.00 76 1012.8
20260502035854 51 212 4.0 9.0 0.00 0.00 0.00 75 1012.8
20260502035324 51 219 4.0 9.0 0.00 0.00 0.00 75 1012.9
20260502034836 51 213 4.0 10.0 0.00 0.00 0.00 75 1012.7
20260502034329 51 182 4.0 10.0 0.00 0.00 0.00 75 1012.7
20260502033825 51 222 4.0 10.0 0.00 0.00 0.00 74 1012.6
20260502033316 51 214 3.0 6.0 0.00 0.00 0.00 73 1012.7
20260502032831 51 196 2.0 7.0 0.00 0.00 0.00 73 1012.7